Weather in Laoag

Philippines     18°12′29″N   120°35′28″E
temp.,
°C
wind,
m/s
gust,
m/s
humid.,
%
clouds,
%
prec.,
mm/h
press.,
hPa
HPBL,
m
27 january, thu
thu2723:00+26ene46785 0.0 1011284
02:00+26ne457790 0.0 1010256
05:00+26ene3479100 0.2 1009243
08:00+26ene458265 0.8 1011307
11:00+27ne447667 0.3 1011437
14:00+28n657478 0.3 1008427
17:00+28nne44776 0.1 1008242
20:00+26sse448444 0.6 1010189
28 january, fri
fri2823:00+26ene117967 0.1 1010141
02:00+26ne017772 0.2 1010173
05:00+26se328094 0.1 1009160
08:00+25se2282100 1.1 1011122
11:00+26w227775 0.6 1011225
14:00+26nw5483100 0.9 1009407
17:00+26nne4484100 0.6 1009297
20:00+26nne4483100 2.8 1011211
29 january, sat
sat2923:00+26e118393 1.1 101183
02:00+26s3381100 2.4 1010283
05:00+26sw4483100 2.1 1009450
08:00+25wsw338472 4.9 1011359
11:00+25n2285100 3.1 1011282
14:00+26nne338278 4.8 1008294
17:00+26ne118076 1.7 1008145
20:00+26ne33805 3.6 1010177
30 january, sun
sun3023:00+25ne328191 0.6 1010184
02:00+25ne4381100 0.9 1009288
05:00+25ne548399 0.3 1008375
08:00+25ne888599 0.4 1011527
11:00+24nne121286100 0.9 1011532
14:00+23nne111289100 6.2 1010614
17:00+23ne81188100 12.4 1011589
20:00+23ene5682100 17.5 1012435
31 january, mon
mon3123:00+24ne7877100 0.2 1011395
02:00+24ene567599 0.2 1010376
05:00+24ene567792 0.1 1010367
08:00+24ene4576100 0.1 1012330
11:00+25e3369100 0.0 1012410
14:00+27sw12616 0.1 1010508
17:00+26nnw226870 0.0 1010363
20:00+26e227074 0.0 1012208